Location: Newark
(45.7114°N, 9.7358°E)
Time: 12:00:58
(UTC+00:00)

OTV 5 (USA 277) - Visible Passes

Search period start: 15 October 2019 00:00
Search period end: 25 October 2019 00:00
Orbit: 310 x 324 km, 54.5° (Epoch: 08 October)

Date Brightness Start Highest point End Pass type
(mag) Time Alt. Az. Time Alt. Az. Time Alt. Az.
15 Oct ? 03:53:05 16° N 03:53:34 17° NNE 03:55:29 10° ENE visible
16 Oct ? 04:07:19 19° NNW 04:08:23 24° NNE 04:10:43 10° E visible
17 Oct ? 04:21:37 21° NW 04:23:06 44° NNE 04:25:44 10° ESE visible
18 Oct ? 03:05:07 11° ENE 03:05:07 11° ENE 03:05:13 10° ENE visible
18 Oct ? 04:36:01 21° WNW 04:37:42 77° SW 04:40:25 10° SE visible
19 Oct ? 03:19:36 16° E 03:19:36 16° E 03:20:23 10° E visible
19 Oct ? 04:50:31 16° W 04:52:09 28° SW 04:54:34 10° SSE visible
20 Oct ? 03:34:13 20° ESE 03:34:13 20° ESE 03:35:15 10° ESE visible
20 Oct ? 05:05:21 10° WSW 05:06:28 12° SW 05:07:36 10° SSW visible
21 Oct ? 03:48:58 16° SSE 03:48:58 16° SSE 03:49:41 10° SE visible
